Albany, NY

9:25 PM EST on December 15, 2019 (GMT -0500)
Albany International

Weather History for KALB - October, 2019

Change the Weather History Date:

Saturday, October 26, 2019

  Actual Average Record
Temperature  
Mean Temperature 51 °F 46 °F  
Max Temperature 57 °F 56 °F 78 °F (1963)
Min Temperature 44 °F 37 °F 20 °F (1952)
Degree Days  
Heating Degree Days 14 19  
Month to date heating degree days 318 381  
Since 1 July heating degree days 395 548  
Cooling Degree Days 0 0  
Month to date cooling degree days 4 0  
Year to date cooling degree days 771 594  
Growing Degree Days 1 (Base 50)    
Moisture  
Dew Point 40 °F    
Average Humidity 70    
Maximum Humidity 89    
Minimum Humidity 43    
Precipitation  
Precipitation T in 0.11 in 1.85 in (1943)
Month to date precipitation 5.79 3.10  
Year to date precipitation 37.00 32.55  
Snow  
Snow 0.00 in 0.00 in T in (1997)
Month to date snowfall 0.0 0.2  
Since 1 July snowfall 0.0 0.2  
Since 1 September snowfall 0.0 0.2  
Snow Depth 0.00 in    
Sea Level Pressure  
Sea Level Pressure 30.25 in    
Wind  
Wind Speed 2 mph ()    
Max Wind Speed 9 mph    
Max Gust Speed 12 mph    
Visibility 10.0 miles    
Events Fog , Rain    
T = Trace of Precipitation, MM = Missing Value Source: Averaged Metar Reports

Daily Weather History Graph

Daily Weather History Graph

Search for Another Location

Airport or City:

Astronomy

Oct. 26, 2019 Rise Set
Actual Time 7:21 AM EDT 5:56 PM EDT
Civil Twilight 6:52 AM EDT 6:25 PM EDT
Nautical Twilight 6:19 AM EDT 6:58 PM EDT
Astronomical Twilight 5:46 AM EDT 7:31 PM EDT
Moon 5:09 AM EDT (10/26) 5:33 PM EDT (10/26)
Length of Visible Light 11h 32m
Length of Day
10h 34m
Waning Crescent, 3% of the Moon is Illuminated
Oct 26
Waning Crescent
Oct 27
New
Nov 4
First Quarter
Nov 12
Full
Nov 19
Last Quarter

Hourly Weather History & Observations

Time (EDT) Temp. Windchill Dew Point Humidity Pressure Visibility Wind Dir Wind Speed Gust Speed Precip Events Conditions
12:51 AM 48.9 °F - 44.1 °F 83% 30.20 in 10.0 mi Calm Calm - 0.00 in Rain Light Rain
1:51 AM 48.0 °F - 44.1 °F 86% 30.19 in 10.0 mi Calm Calm - 0.00 in   Scattered Clouds
2:51 AM 48.0 °F - 44.1 °F 86% 30.19 in 10.0 mi Calm Calm - N/A   Mostly Cloudy
3:51 AM 46.0 °F - 43.0 °F 89% 30.21 in 10.0 mi Calm Calm - N/A Fog Patches of Fog
4:04 AM 46.0 °F - 43.0 °F 89% 30.21 in 10.0 mi Calm Calm - N/A Fog Patches of Fog
4:51 AM 48.9 °F - 44.1 °F 83% 30.21 in 10.0 mi Calm Calm - N/A   Overcast
5:51 AM 46.9 °F - 42.1 °F 83% 30.23 in 10.0 mi NW 5.8 mph - N/A   Scattered Clouds
6:51 AM 46.0 °F 43.1 °F 39.9 °F 79% 30.24 in 10.0 mi NNW 5.8 mph - N/A   Scattered Clouds
7:51 AM 45.0 °F 41.8 °F 41.0 °F 86% 30.27 in 10.0 mi NNW 5.8 mph - N/A   Scattered Clouds
8:51 AM 48.9 °F - 43.0 °F 80% 30.29 in 10.0 mi North 5.8 mph - N/A   Scattered Clouds
9:51 AM 53.1 °F - 39.9 °F 61% 30.29 in 10.0 mi NE 5.8 mph - N/A   Scattered Clouds
10:51 AM 53.1 °F - 39.9 °F 61% 30.30 in 10.0 mi NE 5.8 mph - N/A   Mostly Cloudy
11:51 AM 55.0 °F - 39.0 °F 55% 30.30 in 10.0 mi NNW 6.9 mph - N/A   Scattered Clouds
12:51 PM 55.9 °F - 37.9 °F 51% 30.28 in 10.0 mi Calm Calm - N/A   Mostly Cloudy
1:51 PM 57.0 °F - 35.1 °F 44% 30.25 in 10.0 mi NE 4.6 mph - N/A   Mostly Cloudy
2:51 PM 57.0 °F - 35.1 °F 44% 30.25 in 10.0 mi Calm Calm - N/A   Mostly Cloudy
3:51 PM 57.0 °F - 35.1 °F 44% 30.25 in 10.0 mi Calm Calm - N/A   Mostly Cloudy
4:51 PM 54.0 °F - 36.0 °F 51% 30.25 in 10.0 mi ENE 4.6 mph - N/A   Mostly Cloudy
5:51 PM 54.0 °F - 36.0 °F 51% 30.25 in 10.0 mi ENE 3.5 mph - N/A   Mostly Cloudy
6:51 PM 50.0 °F - 37.9 °F 63% 30.26 in 10.0 mi Calm Calm - N/A   Mostly Cloudy
7:51 PM 46.9 °F - 37.0 °F 68% 30.26 in 10.0 mi Calm Calm - N/A   Mostly Cloudy
8:51 PM 45.0 °F - 37.0 °F 74% 30.27 in 10.0 mi Calm Calm - N/A   Mostly Cloudy
9:51 PM 46.9 °F - 37.9 °F 71% 30.25 in 10.0 mi Calm Calm - N/A   Overcast
10:51 PM 46.9 °F - 39.9 °F 77% 30.26 in 10.0 mi Calm Calm - N/A   Overcast
11:51 PM 46.9 °F - 41.0 °F 80% 30.25 in 10.0 mi Calm Calm - N/A   Overcast